Cheektowaga, NY

12:19 AM EST on February 07, 2016 (GMT -0500)
Buffalo Niagara International

Weather History for KBUF - June, 2013

Change the Weather History Date:

Sunday, June 2, 2013

  Actual Average Record
Temperature  
Mean Temperature 64 °F 62 °F  
Max Temperature 72 °F 72 °F 87 °F (1919)
Min Temperature 55 °F 53 °F 39 °F (1929)
Degree Days  
Heating Degree Days 1 4  
Month to date heating degree days 1 9  
Since 1 June heating degree days 1 9  
Since 1 July heating degree days 6033 6562  
Cooling Degree Days 0 2  
Month to date cooling degree days 11 4  
Year to date cooling degree days 82 30  
Since 1 June cooling degree days 11 4  
Growing Degree Days 14 (Base 50)    
Moisture  
Dew Point 62 °F    
Average Humidity 83    
Maximum Humidity 100    
Minimum Humidity 66    
Precipitation  
Precipitation 1.12 in 0.12 in 1.65 in (1971)
Month to date precipitation 2.21 0.25  
Year to date precipitation 16.31 15.26  
Snow  
Snow 0.00 in 0.00 in 0.00 in ()
Month to date snowfall 0.0 0.0  
Since 1 June snowfall 0.0 0.0  
Since 1 July snowfall 58.8 94.7  
Snow Depth 0.00 in    
Sea Level Pressure  
Sea Level Pressure 29.76 in    
Wind  
Wind Speed 15 mph (SSW)    
Max Wind Speed 32 mph    
Max Gust Speed 45 mph    
Visibility 7 miles    
Events Rain , Thunderstorm    
T = Trace of Precipitation, MM = Missing Value Source: NWS Daily Summary

Daily Weather History Graph

Daily Weather History Graph

Search for Another Location

Airport or City:

Trip Planner

Search our weather history database for the weather conditions in past years. The results will help you decide how hot, cold, wet, or windy it might be!

Date:

Astronomy

Jun. 02, 2013 Rise Set
Actual Time 5:38 AM EDT 8:48 PM EDT
Civil Twilight 5:03 AM EDT 9:22 PM EDT
Nautical Twilight 4:19 AM EDT 10:07 PM EDT
Astronomical Twilight 3:26 AM EDT 11:00 PM EDT
Moon 2:12 AM EDT (6/2) 3:09 PM EDT (6/2)
Length of Visible Light 16h 19m
Length of Day
15h 09m
Waning Crescent, 31% of the Moon is Illuminated
Jun 2
Waning Crescent
Jun 8
New
Jun 16
First Quarter
Jun 23
Full
Jun 30
Last Quarter

Hourly Weather History & Observations

Time (EDT) Temp. Dew Point Humidity Pressure Visibility Wind Dir Wind Speed Gust Speed Precip Events Conditions
12:10 AM 66.2 °F 66.2 °F 100% 29.79 in 3.0 mi Calm Calm - 0.05 in Rain Rain
12:34 AM 68.0 °F 66.2 °F 94% 29.77 in 1.8 mi Calm Calm - 0.12 in Rain Heavy Rain
12:38 AM 68.0 °F 66.2 °F 94% 29.77 in 2.0 mi SSE 8.1 mph - 0.16 in Rain Heavy Rain
12:52 AM 66.2 °F 66.2 °F 100% 29.78 in 1.0 mi South 10.4 mph - 0.39 in Rain Heavy Rain
12:54 AM 66.9 °F 66.0 °F 97% 29.78 in 1.0 mi South 11.5 mph - 0.46 in Rain Heavy Rain
1:00 AM 66.2 °F 66.2 °F 100% 29.77 in 2.0 mi SSE 4.6 mph - 0.13 in Rain Light Rain
1:13 AM 66.2 °F 66.2 °F 100% 29.77 in 1.2 mi SSE 5.8 mph - 0.30 in Rain Heavy Rain
1:21 AM 66.2 °F 66.2 °F 100% 29.76 in 2.0 mi South 5.8 mph - 0.40 in Rain Heavy Rain
1:30 AM 66.2 °F 66.2 °F 100% 29.78 in 3.0 mi South 9.2 mph - 0.43 in Rain Heavy Rain
1:41 AM 66.2 °F 64.4 °F 94% 29.75 in 3.0 mi SE 5.8 mph - 0.45 in Rain Heavy Rain
1:51 AM 66.2 °F 64.4 °F 94% 29.75 in 8.0 mi South 6.9 mph - 0.50 in Rain Light Rain
1:54 AM 66.0 °F 64.9 °F 96% 29.75 in 4.0 mi SSW 6.9 mph - 0.50 in Rain Light Rain
2:07 AM 66.2 °F 64.4 °F 94% 29.73 in 3.0 mi ESE 6.9 mph - 0.22 in Rain Light Rain
2:31 AM 66.2 °F 64.4 °F 94% 29.75 in 2.5 mi South 6.9 mph - 0.26 in Rain Light Rain
2:40 AM 66.2 °F 64.4 °F 94% 29.72 in 4.0 mi Calm Calm - 0.35 in Rain Light Rain
2:50 AM 66.2 °F 64.4 °F 94% 29.71 in 5.0 mi ESE 6.9 mph - 0.38 in Rain Light Rain
2:54 AM 66.0 °F 64.9 °F 96% 29.71 in 5.0 mi SSE 6.9 mph - 0.39 in Rain Light Rain
3:43 AM 66.2 °F 64.4 °F 94% 29.74 in 1.8 mi WSW 9.2 mph - 0.08 in Rain Light Rain
3:48 AM 66.2 °F 64.4 °F 94% 29.73 in 3.0 mi WSW 11.5 mph - 0.16 in Rain Light Rain
3:54 AM 66.9 °F 64.9 °F 93% 29.71 in 3.0 mi WSW 9.2 mph - 0.20 in Rain Light Rain
3:59 AM 66.2 °F 64.4 °F 94% 29.72 in 3.0 mi SW 6.9 mph - 0.02 in Rain , Thunderstorm Light Thunderstorms and Rain
4:05 AM 66.2 °F 64.4 °F 94% 29.73 in 3.0 mi SW 9.2 mph - 0.03 in Rain , Thunderstorm Light Thunderstorms and Rain
4:15 AM 66.2 °F 64.4 °F 94% 29.74 in 4.0 mi SSW 12.7 mph - 0.04 in Rain , Thunderstorm Light Thunderstorms and Rain
4:22 AM 66.2 °F 64.4 °F 94% 29.73 in 4.0 mi SSW 8.1 mph - 0.06 in Rain Light Rain
4:34 AM 66.2 °F 64.4 °F 94% 29.73 in 4.0 mi SSW 10.4 mph - 0.09 in Rain Light Rain
4:54 AM 66.0 °F 64.9 °F 96% 29.71 in 5.0 mi South 8.1 mph - 0.12 in Rain Light Rain
5:33 AM 66.2 °F 64.4 °F 94% 29.72 in 9.0 mi SSW 8.1 mph - 0.02 in   Overcast
5:54 AM 66.0 °F 64.9 °F 96% 29.71 in 10.0 mi South 8.1 mph - 0.02 in   Mostly Cloudy
6:14 AM 66.2 °F 64.4 °F 94% 29.72 in 10.0 mi South 12.7 mph - N/A   Mostly Cloudy
6:54 AM 66.9 °F 64.0 °F 90% 29.71 in 10.0 mi SSW 10.4 mph - N/A   Overcast
7:04 AM 66.2 °F 64.4 °F 94% 29.72 in 10.0 mi SSW 11.5 mph - N/A   Overcast
7:54 AM 69.1 °F 64.9 °F 87% 29.70 in 10.0 mi South 15.0 mph 21.9 mph N/A   Overcast
8:54 AM 69.1 °F 64.0 °F 84% 29.71 in 10.0 mi SW 17.3 mph 24.2 mph N/A   Overcast
9:54 AM 69.1 °F 63.0 °F 81% 29.72 in 10.0 mi WSW 19.6 mph 28.8 mph N/A   Mostly Cloudy
10:33 AM 69.8 °F 62.6 °F 78% 29.72 in 10.0 mi SW 20.7 mph 28.8 mph 0.00 in   Mostly Cloudy
10:54 AM 70.0 °F 62.1 °F 76% 29.73 in 10.0 mi WSW 20.7 mph 28.8 mph 0.00 in   Mostly Cloudy
11:54 AM 69.1 °F 61.0 °F 75% 29.73 in 10.0 mi WSW 23.0 mph 38.0 mph N/A   Scattered Clouds
12:54 PM 70.0 °F 60.1 °F 71% 29.74 in 10.0 mi WSW 23.0 mph 39.1 mph N/A   Scattered Clouds
1:54 PM 69.1 °F 57.9 °F 68% 29.76 in 10.0 mi SW 26.5 mph 36.8 mph N/A   Scattered Clouds
2:54 PM 66.9 °F 57.9 °F 73% 29.77 in 10.0 mi SW 25.3 mph 34.5 mph N/A   Scattered Clouds
3:54 PM 66.9 °F 57.9 °F 73% 29.77 in 10.0 mi WSW 26.5 mph 36.8 mph N/A   Scattered Clouds
4:54 PM 68.0 °F 57.9 °F 70% 29.78 in 10.0 mi WSW 18.4 mph 33.4 mph N/A   Mostly Cloudy
5:54 PM 68.0 °F 57.0 °F 68% 29.78 in 10.0 mi WSW 19.6 mph 28.8 mph N/A   Scattered Clouds
6:54 PM 69.1 °F 57.9 °F 68% 29.78 in 10.0 mi SW 13.8 mph 21.9 mph N/A   Scattered Clouds
7:54 PM 63.0 °F 57.0 °F 81% 29.80 in 10.0 mi SW 10.4 mph - N/A   Mostly Cloudy
8:54 PM 62.1 °F 54.0 °F 75% 29.84 in 10.0 mi NW 12.7 mph 23.0 mph N/A   Mostly Cloudy
9:32 PM 60.8 °F 51.8 °F 72% 29.87 in 10.0 mi NW 13.8 mph 21.9 mph N/A   Mostly Cloudy
9:54 PM 59.0 °F 51.1 °F 75% 29.88 in 10.0 mi NW 11.5 mph - N/A   Mostly Cloudy
10:54 PM 57.9 °F 50.0 °F 75% 29.88 in 10.0 mi NW 9.2 mph 18.4 mph N/A   Mostly Cloudy
11:29 PM 57.2 °F 50.0 °F 77% 29.90 in 10.0 mi NW 4.6 mph - N/A   Overcast
11:54 PM 57.0 °F 48.9 °F 74% 29.91 in 10.0 mi NW 8.1 mph - N/A   Overcast